KSBPKIZA

Guest
Details From KSBP - San Luis Co Rgnl
To KIZA - SANTA YNEZ
Flight Number -
Tags generated
Created
Modified
Stats Distance 48 nm / 88 km
Max Altitude 4,600 ft / 1,402 m
Waypoints 3
Social Downloads 0
Likes 0
Share VATSIM

Download

Looking for another format? Having issues loading an existing format? Contact us
Advertisement - Login to hide

Notes

Basic altitude profile: - Ascent Rate: 2500ft/min - Ascent Speed: 250kts - Cruise Altitude: 35000ft - Cruise Speed: 420kts - Descent Rate: 1500ft/min - Descent Speed: 250kts Options: - Use NATs: yes - Use PACOTS: yes - Use low airways: yes - Use high airways: yes

Route

KSBP ORCUT KIZA

ID Type Via Altitude Latitude Longitude Leg Dist Tot Dist Heading (true) Name
O KSBP APT - 0 ft / 0 m 35.23714˚ -120.64346˚ - 0 nm - San Luis Co Rgnl
ORCUT FIX - 4,600 ft / 1,402 m 34.85474˚ -120.38915˚ 26 nm 26 nm 151° / 152° -
O KIZA APT - 0 ft / 0 m 34.60682˚ -120.07555˚ 21 nm 47 nm 134° / 134° SANTA YNEZ

Altitude Profile

Advertisement - Login to hide

KSBP

Details ICAO KSBP (SBP)
Name San Luis Co Rgnl
Region United States
Timezone America/Los_Angeles (UTC-8.0)
Stats Elevation 212 ft / 65 m (AMSL)
Location 35.237141° -120.643460°
Runways 2
Magnetic Variation 12.678° E

METAR

KSBP 162356Z 34010KT 10SM CLR 19/01 A2979 RMK AO2 SLP086 T01890006 10200 20156 55004

Decode

TAF

KSBP 162357Z 1700/1724 35012KT P6SM SKC FM170200 34008KT P6SM SKC FM170600 VRB03KT P6SM SKC FM171300 02008KT P6SM SKC FM172000 33010KT P6SM SKC

Decode

Departure Runways

ID Width Length Bearing (true) Bearing (mag) Surface Threshold Offset Overrun Length
07 98 ft / 30 m 2,522 ft / 769 m 89.79° 77.11° Asphalt 0 ft / 0 m 0 ft / 0 m
11 151 ft / 46 m 6,106 ft / 1,861 m 124.87° 112.19° Asphalt 801 ft / 244 m 600 ft / 183 m
25 98 ft / 30 m 2,522 ft / 769 m 269.80° 257.12° Asphalt 0 ft / 0 m 0 ft / 0 m
29 151 ft / 46 m 6,106 ft / 1,861 m 304.88° 292.20° Asphalt 499 ft / 152 m 600 ft / 183 m

KIZA

Details ICAO KIZA
Name SANTA YNEZ
Region United States
Timezone America/Los_Angeles (UTC-8.0)
Stats Elevation 671 ft / 205 m (AMSL)
Location 34.606817° -120.075550°
Runways 1
Magnetic Variation 12.449° E

METAR

KIZA 170035Z AUTO 36005KT 10SM CLR 17/M02 A2974 RMK AO2 LTG DSNT SE

Decode

TAF

Not found

Destination Runways

ID Width Length Bearing (true) Bearing (mag) Surface Threshold Offset Overrun Length
08 75 ft / 23 m 2,798 ft / 853 m 98.28° 85.83° Asphalt 0 ft / 0 m 0 ft / 0 m
26 75 ft / 23 m 2,798 ft / 853 m 278.29° 265.84° Asphalt 0 ft / 0 m 0 ft / 0 m

Popular Alternatives